Home > Weather > Fetsund > Past weeks

Flag for Norway Past Weather in Fetsund, Norway — Yesterday and Last 2 Weeks

Now
64 °F

Mild.


Feels Like: 64 °F
Forecast: 58 / 68 °F
Wind: 1 mph from Southwest

Location: Oslo-Blindern

Current Time: Aug 25, 2016 at 1:51:19 PM

Latest Report: Aug 25, 2016 at 1:00 PM


Visibility: N/A

Pressure: 30.08 "Hg

Humidity: 95%

Dew Point: 63 °F

Location of FetsundLocation

Past Weather in Fetsund — Graph

°F

Fetsund Temperature Yesterday

Maximum temperature yesterday: 64 °F (at 1:00 PM)
Minimum temperature yesterday: 60 °F (at 6:00 AM)
Average temperature yesterday: 61 °F

High & Low Weather Summary for the Past Weeks

 TemperatureHumidityPressure
High74 °F (Aug 17, 4:00 PM)98% (Aug 21, 7:00 AM)30.26 "Hg (Aug 21, 7:00 AM)
Low44 °F (Aug 12, 5:00 AM)34% (Aug 17, 3:00 PM)29.58 "Hg (Aug 13, 2:00 AM)
Average61 °F72%29.97 "Hg
* Reported Aug 10 12:00 PM — Aug 25 12:00 PM, Fetsund, Weather by CustomWeather, © 2016

Note: Actual official high and low records may vary slightly from our data, if they occured in-between our weather recording intervals... More about our weather records

Advertising

Fetsund Weather History for the Previous 24 Hours

Scroll right to see more
 ConditionsComfort  
Time TempWeatherWind HumidityBarometerVisibility
12:00 PM
Thu, Aug 25
64 °FLight rain. Cloudy.No wind94%30.08 "Hg3 mi
11:00 AM64 °FDrizzle. Low clouds.1 mph93%30.08 "Hg2 mi
10:00 AM64 °FFog.1 mph93%30.07 "Hg2 mi
9:00 AM63 °FFog.2 mph95%30.08 "Hg2 mi
8:00 AM63 °FFog.2 mph94%30.09 "Hg2 mi
7:00 AM63 °FMild.1 mph94%30.09 "HgN/A
6:00 AM63 °FFog.2 mph95%30.09 "Hg4 mi
5:00 AM63 °FFog.2 mph95%30.10 "Hg4 mi
4:00 AM63 °FFog.2 mph94%30.11 "Hg6 mi
3:00 AM63 °FMild.2 mph93%30.12 "HgN/A
2:00 AM62 °FMild.2 mph92%30.13 "Hg6 mi
1:00 AM62 °FCool.2 mph92%30.14 "HgN/A
12:00 AM62 °FCool.2 mph91%30.14 "Hg8 mi
11:00 PM
Wed, Aug 24
62 °FCool.5 mph91%30.15 "Hg7 mi
10:00 PM61 °FCool.3 mph91%30.16 "Hg7 mi
9:00 PM61 °FCool.5 mph89%30.16 "Hg8 mi
8:00 PM61 °FOvercast.5 mph87%30.17 "Hg16 mi
7:00 PM61 °FCool.5 mph85%30.17 "Hg28 mi
6:00 PM62 °FCool.6 mph84%30.19 "HgN/A
5:00 PM62 °FLow clouds.6 mph85%30.19 "Hg31 mi
4:00 PM62 °FCool.6 mph87%30.20 "Hg19 mi
3:00 PM62 °FCool.6 mph80%30.22 "HgN/A
2:00 PM64 °FOvercast.3 mph74%30.22 "Hg43 mi
1:00 PM64 °FMild.5 mph73%30.22 "HgN/A
Weather by CustomWeather, © 2016

See weather overviewHow to use our weather pages